This is the latest recevied weather packets stored in our database for station/object YO6LRV-3. If no packets are shown the sender has not sent any weather packets the latest 10 day(s).
| Time | Temp. | Humidity | Pressure | Rain* | Wind** | Luminosity | Snow |
|---|---|---|---|---|---|---|---|
| 1777964771 | 16.11° C | 47% | 1016.3 hPa | - | - | - | - |
| 1777963871 | 15.56° C | 48% | 1016.3 hPa | - | - | - | - |
| 1777962971 | 15.56° C | 48% | 1016.4 hPa | - | - | - | - |
| 1777962071 | 15° C | 49% | 1016.2 hPa | - | - | - | - |
| 1777961171 | 14.44° C | 49% | 1016.2 hPa | - | - | - | - |
| 1777960271 | 14.44° C | 48% | 1016.2 hPa | - | - | - | - |
| 1777959371 | 13.89° C | 46% | 1016.1 hPa | - | - | - | - |
| 1777958471 | 13.89° C | 45% | 1016.1 hPa | - | - | - | - |
| 1777957571 | 13.33° C | 45% | 1016 hPa | - | - | - | - |
| 1777956670 | 13.33° C | 44% | 1015.9 hPa | - | - | - | - |
| 1777955770 | 13.33° C | 44% | 1015.8 hPa | - | - | - | - |
| 1777954870 | 13.33° C | 43% | 1015.8 hPa | - | - | - | - |
| 1777953970 | 13.33° C | 44% | 1015.8 hPa | - | - | - | - |
| 1777932369 | 16.11° C | 37% | 1015.8 hPa | - | - | - | - |
| 1777928768 | 17.22° C | 38% | 1015.7 hPa | - | - | - | - |
| 1777926968 | 17.22° C | 36% | 1015.8 hPa | - | - | - | - |
| 1777926068 | 17.22° C | 36% | 1015 hPa | - | - | - | - |
| 1777925168 | 17.78° C | 36% | 1015.6 hPa | - | - | - | - |
| 1777924268 | 17.78° C | 35% | 1015.6 hPa | - | - | - | - |
| 1777921570 | 18.89° C | 34% | 1015.6 hPa | - | - | - | - |
| 1777916169 | 20.56° C | 32% | 1014.8 hPa | - | - | - | - |
| 1777914369 | 21.11° C | 32% | 1014.8 hPa | - | - | - | - |
| 1777910768 | 22.78° C | 31% | 1014.7 hPa | - | - | - | - |
| 1777908968 | 23.33° C | 31% | 1014.8 hPa | - | - | - | - |
| 1777903567 | 25.56° C | 29% | 1015.1 hPa | - | - | - | - |
* Rain since midnight (hover to see other rain measurements)
** Current wind speed in m/s (hover to see current wind gust speed)